Location: Allen Lane School
(37.8198°N, 89.7382°W)
Time: 13:28:14
(UTC+00:00)

SL-27 R/B - Pass Details

Date: 08 December 2021
Orbit: 415 x 464 km, 74.7° (Epoch: 20 January)

Event Time Altitude Azimuth Distance (km) Brightness Sun altitude
Exits shadow 12:26:51 - 295° (WNW) 1,673 4.6 -7.1°
Reaches altitude 10° 12:27:11 10° 291° (WNW) 1,603 4.5 -7.0°
Maximum altitude 12:28:48 13° 263° (W) 1,433 4.4 -6.8°
Drops below altitude 10° 12:30:24 10° 236° (SW) 1,586 4.9 -6.5°
Sets 12:33:24 0° 206° (SSW) 2,439 6.1 -5.9°
